Location: Nashville
(36.1660°N, 86.7840°W)
Time: 17:56:14
(UTC-06:00)

Vanguard 3 - All Passes

Search period start: 22 January 2022 00:00
Search period end: 01 February 2022 00:00
Orbit: 508 x 3260 km, 33.3° (Epoch: 22 January)

Date Brightness Start Highest point End Pass type
(mag) Time Alt. Az. Time Alt. Az. Time Alt. Az.
22 Jan - 10:24:36 10° SSW 10:34:26 26° SSE 10:40:56 10° ESE daylight
22 Jan - 12:38:04 10° WSW 12:47:17 50° SSE 12:52:38 10° E daylight
22 Jan - 14:52:49 10° W 14:59:03 65° S 15:03:08 10° E daylight
22 Jan - 17:06:22 10° W 17:10:03 30° SSW 17:13:18 10° SE daylight
23 Jan - 09:09:52 10° S 09:18:57 19° SSE 09:25:40 10° ESE daylight
23 Jan - 11:21:36 10° SW 11:32:31 41° SSE 11:38:56 10° E daylight
23 Jan - 13:36:38 10° WSW 13:44:53 65° S 13:49:43 10° E daylight
23 Jan - 15:51:09 10° W 15:56:19 50° SSW 16:00:03 10° ESE daylight
23 Jan - 18:05:19 10° SW 18:06:59 12° SSW 18:08:39 10° S visible
24 Jan - 07:57:38 10° SSE 08:03:05 12° SSE 08:07:49 10° SE daylight
24 Jan - 10:05:24 10° SSW 10:17:18 33° SSE 10:24:49 10° E daylight
24 Jan - 12:19:55 10° WSW 12:30:23 58° SSE 12:36:15 10° E daylight
24 Jan - 14:35:21 10° W 14:42:21 66° S 14:46:42 10° ESE daylight
24 Jan - 16:49:30 10° W 16:53:19 26° SSW 16:56:29 10° SSE daylight
25 Jan - 08:49:59 10° SSW 09:01:38 25° SSE 09:09:51 10° ESE daylight
25 Jan - 11:02:58 10° SW 11:15:26 48° SSE 11:22:34 10° E daylight
25 Jan - 13:18:48 10° WSW 13:28:04 69° S 13:33:19 10° E daylight
25 Jan - 15:33:54 10° W 15:39:37 47° SSW 15:43:29 10° ESE daylight
26 Jan - 07:36:13 10° S 07:45:38 17° SSE 07:53:13 10° ESE daylight
26 Jan - 09:46:18 10° SW 10:00:02 39° SSE 10:08:28 10° E daylight
26 Jan - 12:01:40 10° WSW 12:13:23 64° S 12:19:49 10° E daylight
26 Jan - 14:17:44 10° W 14:25:36 66° S 14:30:15 10° ESE daylight
26 Jan - 16:32:33 10° W 16:36:31 23° SSW 16:39:40 10° SSE daylight
27 Jan - 08:30:22 10° SSW 08:44:10 30° SSE 08:53:39 10° E daylight
27 Jan - 10:44:21 10° SW 10:58:15 55° SSE 11:06:06 10° E daylight
27 Jan - 13:00:51 10° W 13:11:10 73° S 13:16:52 10° E daylight
27 Jan - 15:16:31 10° W 15:22:50 44° SSW 15:26:56 10° SE daylight
28 Jan - 07:15:51 10° S 07:28:01 22° SE 07:37:31 10° ESE daylight
28 Jan - 09:27:17 10° SW 09:42:38 46° SSE 09:51:59 10° E daylight
28 Jan - 11:43:22 10° WSW 11:56:18 70° S 12:03:20 10° E daylight
28 Jan - 14:00:01 10° W 14:08:46 65° SSW 14:13:48 10° ESE daylight
28 Jan - 16:15:31 10° W 16:19:38 21° SW 16:22:49 10° SSE daylight
29 Jan - 06:04:26 10° SSE 06:11:41 13° SE 06:18:13 10° ESE visible
29 Jan - 08:11:00 10° SSW 08:26:33 36° SSE 08:37:13 10° E daylight
29 Jan - 10:25:42 10° WSW 10:40:56 62° SSE 10:49:34 10° E daylight
29 Jan - 12:42:47 10° W 12:54:13 74° S 13:00:25 10° E daylight
29 Jan - 14:59:01 10° W 15:05:58 42° SSW 15:10:21 10° SE daylight
30 Jan - 06:56:01 10° SSW 07:10:13 26° SE 07:21:19 10° E daylight
30 Jan - 09:08:21 10° SW 09:25:04 52° SSE 09:35:23 10° E daylight
30 Jan - 11:25:01 10° WSW 11:39:08 74° S 11:46:48 10° E daylight
30 Jan - 13:42:09 10° W 13:51:51 63° SSW 13:57:18 10° ESE daylight
30 Jan - 15:58:22 10° W 16:02:40 19° SW 16:05:55 10° S daylight
31 Jan - 05:43:19 10° S 05:53:49 17° SE 06:03:08 10° ESE visible
31 Jan - 07:51:49 10° SSW 08:08:47 42° SSE 08:20:34 10° E daylight
31 Jan - 10:07:04 10° WSW 10:23:31 67° SSE 10:32:56 10° E daylight
31 Jan - 12:24:37 10° W 12:37:09 75° S 12:43:55 10° E daylight
31 Jan - 14:41:22 10° W 14:49:01 39° SSW 14:53:44 10° SE daylight
